TimeCST,TemperatureF,Dew PointF,Humidity,Sea Level PressureIn,VisibilityMPH,Wind Direction,Wind SpeedMPH,Gust SpeedMPH,PrecipitationIn,Events,Conditions,WindDirDegrees,DateUTC
12:56 AM,30.0,27.0,88,30.16,10.0,North,5.8,-,N/A,,Clear,360,2012-11-25 06:56:00
1:56 AM,33.1,26.1,75,30.15,10.0,North,5.8,-,N/A,,Clear,350,2012-11-25 07:56:00
2:56 AM,30.9,26.1,82,30.15,10.0,Calm,Calm,-,N/A,,Clear,0,2012-11-25 08:56:00
3:56 AM,30.9,26.1,82,30.17,10.0,Calm,Calm,-,N/A,,Clear,0,2012-11-25 09:56:00
4:56 AM,28.9,25.0,85,30.16,10.0,Calm,Calm,-,N/A,,Clear,0,2012-11-25 10:56:00
5:56 AM,28.0,25.0,88,30.19,10.0,Calm,Calm,-,N/A,,Clear,0,2012-11-25 11:56:00
6:56 AM,30.0,26.1,85,30.19,10.0,Calm,Calm,-,N/A,,Clear,0,2012-11-25 12:56:00
7:56 AM,37.9,30.0,73,30.22,10.0,Calm,Calm,-,N/A,,Clear,0,2012-11-25 13:56:00
8:56 AM,46.9,28.0,48,30.23,10.0,Calm,Calm,-,N/A,,Clear,0,2012-11-25 14:56:00
9:56 AM,51.1,25.0,36,30.23,10.0,Variable,3.5,-,N/A,,Clear,0,2012-11-25 15:56:00
10:56 AM,55.0,21.0,27,30.20,10.0,Calm,Calm,-,N/A,,Clear,0,2012-11-25 16:56:00
11:56 AM,59.0,21.0,23,30.16,10.0,SW,5.8,-,N/A,,Clear,220,2012-11-25 17:56:00
12:56 PM,61.0,19.9,21,30.13,10.0,Variable,5.8,-,N/A,,Clear,0,2012-11-25 18:56:00
1:56 PM,62.1,19.0,19,30.12,10.0,WSW,6.9,-,N/A,,Clear,250,2012-11-25 19:56:00
2:56 PM,63.0,21.0,20,30.11,10.0,WSW,3.5,-,N/A,,Clear,250,2012-11-25 20:56:00
3:56 PM,61.0,21.9,22,30.11,10.0,SSW,4.6,-,N/A,,Clear,200,2012-11-25 21:56:00
4:56 PM,55.0,25.0,31,30.11,10.0,Calm,Calm,-,N/A,,Clear,0,2012-11-25 22:56:00
5:56 PM,48.0,32.0,54,30.13,10.0,Calm,Calm,-,N/A,,Clear,0,2012-11-25 23:56:00
6:56 PM,44.1,32.0,63,30.14,10.0,Calm,Calm,-,N/A,,Clear,0,2012-11-26 00:56:00
7:56 PM,41.0,30.9,67,30.15,10.0,Calm,Calm,-,N/A,,Clear,0,2012-11-26 01:56:00
8:56 PM,37.9,30.9,76,30.15,10.0,Calm,Calm,-,N/A,,Clear,0,2012-11-26 02:56:00
9:56 PM,36.0,30.0,79,30.15,10.0,Calm,Calm,-,N/A,,Clear,0,2012-11-26 03:56:00
10:56 PM,37.0,30.0,76,30.14,10.0,Calm,Calm,-,N/A,,Clear,0,2012-11-26 04:56:00
11:56 PM,33.1,28.9,85,30.14,10.0,Calm,Calm,-,N/A,,Clear,0,2012-11-26 05:56:00